Home   Weather   Myrtle Beach   Past weeks

Flag for USA Past Weather in Myrtle Beach, South Carolina, USA — Yesterday and Last 2 Weeks

Now
57 °F

Clear.


Feels Like: 56 °F
Forecast: 55 / 70 °F
Wind: 7 mph from East

Location: Myrtle Beach Air Force Base

Current Time: Jan 19, 2017 at 11:03:22 pm

Latest Report: Jan 19, 2017 at 9:45 pm


Visibility: 10 mi

Pressure: 30.00 "Hg

Humidity: 77%

Dew Point: 50 °F

Location of Myrtle BeachLocation

Past Weather in Myrtle Beach — Graph

°F

Myrtle Beach Temperature Yesterday

Maximum temperature yesterday: 79 °F (at 1:45 pm)
Minimum temperature yesterday: 54 °F (at 9:45 pm)
Average temperature yesterday: 66 °F

High & Low Weather Summary for the Past Weeks

 TemperatureHumidityPressure
High79 °F (Jan 18, 1:45 pm)94% (Jan 11, 8:45 am)30.84 "Hg (Jan 11, 8:45 am)
Low21 °F (Jan 9, 4:35 am)27% (Jan 8, 2:50 pm)29.88 "Hg (Jan 6, 2:35 am)
Average50 °F70%30.31 "Hg
* Reported Jan 4 9:45 pm — Jan 19 9:45 pm, Myrtle Beach, Weather by CustomWeather, © 2017

Note: Actual official high and low records may vary slightly from our data, if they occured in-between our weather recording intervals... More about our weather records

Advertising

Myrtle Beach Weather History for the Previous 24 Hours

Scroll right to see more
 ConditionsComfort  
Time TempWeatherWind HumidityBarometerVisibility
9:45 pm
Thu, Jan 19
57 °FClear.7 mph77%30.00 "Hg10 mi
8:45 pm55 °FClear.7 mph77%30.02 "Hg10 mi
6:45 pm59 °FClear.7 mph68%30.04 "Hg10 mi
5:47 pm59 °FPassing clouds.7 mph59%30.03 "Hg10 mi
4:47 pm59 °FPassing clouds.7 mph59%30.03 "Hg10 mi
1:50 pm63 °FSunny.12 mph56%30.05 "Hg10 mi
12:45 pm61 °FSunny.12 mph59%30.11 "Hg10 mi
10:50 am61 °FSunny.12 mph59%30.12 "Hg10 mi
9:50 am57 °FSunny.9 mph67%30.12 "Hg10 mi
8:47 am50 °FPassing clouds.10 mph82%30.11 "Hg10 mi
7:45 am46 °FSunny.8 mph87%30.09 "Hg10 mi
6:45 am46 °FClear.8 mph87%30.07 "Hg10 mi
5:55 am46 °FClear.6 mph87%30.07 "Hg10 mi
5:35 am48 °FClear.6 mph82%30.06 "Hg10 mi
5:15 am48 °FClear.6 mph82%30.07 "Hg10 mi
4:55 am48 °FClear.7 mph82%30.06 "Hg10 mi
4:35 am48 °FClear.6 mph87%30.06 "Hg10 mi
4:15 am48 °FClear.7 mph87%30.06 "Hg10 mi
3:55 am50 °FClear.7 mph82%30.06 "Hg10 mi
3:35 am52 °FClear.6 mph82%30.06 "Hg10 mi
3:15 am52 °FClear.7 mph82%30.07 "Hg10 mi
2:55 am54 °FClear.6 mph77%30.07 "Hg10 mi
2:35 am54 °FClear.5 mph77%30.07 "Hg10 mi
2:15 am55 °FClear.6 mph77%30.06 "Hg10 mi
1:55 am55 °FClear.6 mph77%30.06 "Hg10 mi
1:35 am55 °FClear.7 mph77%30.06 "Hg10 mi
12:55 am57 °FClear.7 mph67%30.05 "Hg10 mi
12:35 am57 °FClear.7 mph63%30.06 "Hg10 mi
12:15 am59 °FClear.6 mph55%30.06 "Hg10 mi
11:55 pm
Wed, Jan 18
59 °FClear.8 mph48%30.06 "Hg10 mi
11:35 pm59 °FClear.6 mph51%30.06 "Hg10 mi
11:15 pm57 °FClear.7 mph59%30.06 "Hg10 mi
Weather by CustomWeather, © 2017

See weather overviewHow to use our weather pages